STARLINK-31998

decayed
NORAD ID: 60033 Int'l Des: 2024-111 Owner: SPXS Country: US Constellation: starlink
LEOCIRCULAR

关于 STARLINK-31998

正在加载描述...

高度历史

Altitude vs Time

uPlot chart will show altitude changes over time

两行轨道根数

1 60033U 24111T 25198.62805679 .04746942 10271+0 50133-2 0 9999
2 60033 53.1559 62.8743 0006313 251.0282 155.7128 16.17068239 63297
Epoch: Jul 17, 2025 • Age: 1476 hours

当前状态

Position data unavailable
发射日期 Jun 8, 2024
运行时间 1.2 years
衰减日期 Jul 18, 2025
类型 internet

技术详情

分类 Payload
质量 730.00 kg
干质量 700.00 kg
总质量 730.00 kg
长度 0.30 m
直径 4.10 m
跨度 29.00 m
形状 Box + pan
制造商 SPXS
平台类型 Starlink V2M
阶段状态 Unknown Transfer Status
所有者/国家 SPXS/US

大型星座

Loading constellations...